User: anonymous   Login
Location: Newark
(13.8625°N, 100.5144°E)
Time: 14:21:05
(UTC+00:00)
Language:

AIST 2D - Orbit

View from above orbital plane
View from above orbital plane
View from above satellite
View from above satellite

Ground track
Ground track

The orbit data is extracted from the following two-line orbital elements,

1 41465U 16026B   21215.17389394  .00002222  00000-0  64484-4 0  9998
2 41465  97.1010  97.6747 0010119 196.6675 324.5630 15.36493248294601
Epoch (UTC): 03 August 2021 04:10:24
Eccentricity: 0.0010119
inclination: 97.1010°
perigee height: 449 km
apogee height: 463 km
right ascension of ascending node: 97.6747°
argument of perigee: 196.6675°
revolutions per day: 15.36493248
mean anomaly at epoch: 324.5630°
orbit number at epoch: 29460

The dashed part of the orbit path shows where the satellite is in the earth's shadow,  

DLR